• In Portugal
  • List of Countries
  • For 7 days
  • Water Temperature
  • Satellite Maps
  • Weather Map
  • Weather Widgets
  • user-avatar
    Login

    Hourly Weather Niğde

    Today, 22 September, Saturday

    Time Temperature Precipitation Wind Pressure Humidity
    00:00 +16°C° 0 mm 1 mps 652 mmHg 32%
    01:00 +15°C° 0 mm 1 mps 652 mmHg 33%
    02:00 +15°C° 0 mm 1 mps 652 mmHg 35%
    03:00 +14°C° 0 mm 1 mps 651 mmHg 38%
    04:00 +14°C° 0 mm 1 mps 651 mmHg 40%
    05:00 +13°C° 0 mm 1 mps 651 mmHg 43%
    06:00 +15°C° 0 mm 1 mps 652 mmHg 39%
    07:00 +19°C° 0 mm 1 mps 653 mmHg 34%
    08:00 +21°C° 0 mm 1 mps 654 mmHg 29%
    09:00 +22°C° 0 mm 1 mps 654 mmHg 27%
    10:00 +24°C° 0 mm 1 mps 654 mmHg 24%
    11:00 +25°C° 0 mm 1 mps 655 mmHg 22%
    12:00 +26°C° 0 mm 2 mps 655 mmHg 21%
    13:00 +26°C° 0 mm 2 mps 654 mmHg 19%
    14:00 +27°C° 0 mm 2 mps 654 mmHg 18%
    15:00 +26°C° 0 mm 2 mps 654 mmHg 19%
    16:00 +26°C° 0 mm 2 mps 654 mmHg 20%
    17:00 +25°C° 0 mm 2 mps 654 mmHg 22%
    18:00 +23°C° 0 mm 2 mps 653 mmHg 25%
    19:00 +21°C° 0 mm 1 mps 653 mmHg 28%
    20:00 +19°C° 0 mm 1 mps 653 mmHg 31%
    21:00 +19°C° 0 mm 1 mps 653 mmHg 31%
    22:00 +18°C° 0 mm 1 mps 653 mmHg 31%
    23:00 +18°C° 0 mm 1 mps 653 mmHg 32%

    Tomorrow, 23 September, Sunday

    Time Temperature Precipitation Wind Pressure Humidity
    00:00 +16°C° 0 mm 1 mps 653 mmHg 33%
    01:00 +16°C° 0 mm 1 mps 652 mmHg 34%
    02:00 +15°C° 0 mm 1 mps 652 mmHg 35%
    03:00 +15°C° 0 mm 1 mps 652 mmHg 37%
    04:00 +14°C° 0 mm 1 mps 652 mmHg 40%
    05:00 +14°C° 0 mm 1 mps 652 mmHg 42%
    06:00 +16°C° 0 mm 1 mps 653 mmHg 37%
    07:00 +20°C° 0 mm 1 mps 654 mmHg 32%
    08:00 +22°C° 0 mm 1 mps 655 mmHg 27%
    09:00 +23°C° 0 mm 1 mps 656 mmHg 25%
    10:00 +24°C° 0 mm 2 mps 656 mmHg 22%
    11:00 +26°C° 0 mm 2 mps 656 mmHg 20%
    12:00 +26°C° 0 mm 3 mps 656 mmHg 19%
    13:00 +27°C° 0 mm 3 mps 656 mmHg 17%
    14:00 +27°C° 0 mm 3 mps 656 mmHg 16%
    15:00 +27°C° 0 mm 3 mps 656 mmHg 18%
    16:00 +26°C° 0 mm 3 mps 655 mmHg 19%
    17:00 +25°C° 0 mm 3 mps 655 mmHg 20%
    18:00 +24°C° 0 mm 2 mps 655 mmHg 23%
    19:00 +21°C° 0 mm 2 mps 655 mmHg 26%
    20:00 +20°C° 0 mm 1 mps 655 mmHg 29%
    21:00 +19°C° 0 mm 1 mps 655 mmHg 30%
    22:00 +19°C° 0 mm 1 mps 655 mmHg 32%
    23:00 +18°C° 0 mm 1 mps 655 mmHg 33%

    Day after tomorrow, 24 September, Monday

    Time Temperature Precipitation Wind Pressure Humidity
    00:00 +18°C° 0 mm 1 mps 654 mmHg 36%
    01:00 +16°C° 0 mm 1 mps 654 mmHg 38%
    02:00 +16°C° 0 mm 1 mps 654 mmHg 40%
    03:00 +15°C° 0 mm 1 mps 654 mmHg 42%
    04:00 +15°C° 0 mm 1 mps 654 mmHg 44%
    05:00 +14°C° 0 mm 1 mps 653 mmHg 46%
    06:00 +18°C° 0 mm 1 mps 654 mmHg 40%
    07:00 +20°C° 0 mm 1 mps 655 mmHg 34%
    08:00 +22°C° 0 mm 1 mps 656 mmHg 28%
    09:00 +24°C° 0 mm 1 mps 656 mmHg 25%
    10:00 +25°C° 0 mm 1 mps 656 mmHg 22%
    11:00 +27°C° 0 mm 1 mps 656 mmHg 19%
    12:00 +27°C° 0 mm 1 mps 656 mmHg 18%
    13:00 +28°C° 0 mm 2 mps 656 mmHg 17%
    14:00 +29°C° 0 mm 2 mps 655 mmHg 16%
    15:00 +28°C° 0 mm 2 mps 655 mmHg 17%
    16:00 +27°C° 0 mm 2 mps 655 mmHg 19%
    17:00 +27°C° 0 mm 2 mps 654 mmHg 20%
    18:00 +25°C° 0 mm 1 mps 654 mmHg 23%
    19:00 +23°C° 0 mm 1 mps 653 mmHg 26%
    20:00 +21°C° 0 mm 1 mps 653 mmHg 29%
    21:00 +20°C° 0 mm 1 mps 653 mmHg 30%
    22:00 +19°C° 0 mm 1 mps 652 mmHg 31%
    23:00 +17°C° 0 mm 0 mps 652 mmHg 31%

    25 September, Tuesday

    Time Temperature Precipitation Wind Pressure Humidity
    00:00 +18°C° 0 mm 1 mps 652 mmHg 32%
    01:00 +18°C° 0 mm 1 mps 652 mmHg 32%
    02:00 +18°C° 0 mm 1 mps 651 mmHg 32%
    03:00 +16°C° 0 mm 1 mps 651 mmHg 33%
    04:00 +16°C° 0 mm 1 mps 651 mmHg 34%
    05:00 +15°C° 0 mm 1 mps 651 mmHg 35%
    06:00 +17°C° 0 mm 0 mps 652 mmHg 30%
    07:00 +19°C° 0 mm 0 mps 652 mmHg 26%
    08:00 +22°C° 0 mm 0 mps 653 mmHg 22%
    09:00 +25°C° 0 mm 1 mps 654 mmHg 21%
    10:00 +27°C° 0 mm 1 mps 654 mmHg 19%
    11:00 +28°C° 0 mm 1 mps 654 mmHg 18%
    12:00 +28°C° 0 mm 2 mps 653 mmHg 17%
    13:00 +29°C° 0 mm 2 mps 653 mmHg 17%
    14:00 +29°C° 0 mm 2 mps 653 mmHg 16%
    15:00 +28°C° 0 mm 2 mps 652 mmHg 18%
    16:00 +28°C° 0 mm 2 mps 652 mmHg 19%
    17:00 +27°C° 0 mm 2 mps 652 mmHg 21%
    18:00 +25°C° 0 mm 2 mps 652 mmHg 25%
    19:00 +23°C° 0 mm 2 mps 651 mmHg 29%
    20:00 +20°C° 0 mm 2 mps 651 mmHg 33%
    21:00 +19°C° 0 mm 2 mps 651 mmHg 38%
    22:00 +18°C° 0 mm 2 mps 651 mmHg 43%
    23:00 +17°C° 0 mm 2 mps 651 mmHg 47%

    26 September, Wednesday

    Time Temperature Precipitation Wind Pressure Humidity
    00:00 +17°C° 0 mm 2 mps 651 mmHg 53%
    01:00 +16°C° 0 mm 3 mps 651 mmHg 60%
    02:00 +14°C° 0 mm 3 mps 651 mmHg 66%
    03:00 +14°C° 0 mm 3 mps 651 mmHg 70%
    04:00 +13°C° 0 mm 3 mps 651 mmHg 74%
    05:00 +13°C° 0 mm 3 mps 651 mmHg 79%
    06:00 +13°C° 0 mm 3 mps 651 mmHg 76%
    07:00 +14°C° 0 mm 3 mps 652 mmHg 73%
    08:00 +16°C° 0 mm 3 mps 652 mmHg 71%
    09:00 +17°C° 0 mm 3 mps 652 mmHg 66%
    10:00 +17°C° 0 mm 3 mps 652 mmHg 61%
    11:00 +18°C° 0 mm 3 mps 653 mmHg 57%
    12:00 +19°C° 0 mm 4 mps 652 mmHg 53%
    13:00 +19°C° 0 mm 4 mps 652 mmHg 50%
    14:00 +20°C° 0 mm 4 mps 652 mmHg 47%
    15:00 +19°C° 0 mm 4 mps 652 mmHg 49%
    16:00 +17°C° 0 mm 5 mps 651 mmHg 52%
    17:00 +16°C° 0 mm 5 mps 651 mmHg 54%
    18:00 +15°C° 0 mm 5 mps 651 mmHg 58%
    19:00 +14°C° 0 mm 5 mps 651 mmHg 63%
    20:00 +12°C° 0 mm 4 mps 651 mmHg 67%
    21:00 +12°C° 0 mm 4 mps 651 mmHg 69%
    22:00 +11°C° 0 mm 4 mps 651 mmHg 72%
    23:00 +11°C° 0 mm 3 mps 651 mmHg 74%

    27 September, Thursday

    Time Temperature Precipitation Wind Pressure Humidity
    00:00 +10°C° 0 mm 3 mps 651 mmHg 76%
    01:00 +10°C° 0 mm 3 mps 651 mmHg 77%
    02:00 +10°C° 0 mm 3 mps 651 mmHg 79%
    03:00 +9°C° 0 mm 3 mps 651 mmHg 80%
    04:00 +9°C° 0 mm 3 mps 651 mmHg 81%
    05:00 +9°C° 0 mm 3 mps 651 mmHg 83%
    06:00 +10°C° 0 mm 3 mps 651 mmHg 76%
    07:00 +13°C° 0 mm 2 mps 652 mmHg 69%
    08:00 +14°C° 0 mm 2 mps 652 mmHg 62%
    09:00 +16°C° 0 mm 2 mps 653 mmHg 55%
    10:00 +18°C° 0 mm 2 mps 653 mmHg 47%
    11:00 +20°C° 0 mm 2 mps 654 mmHg 40%
    12:00 +21°C° 0 mm 2 mps 654 mmHg 36%
    13:00 +24°C° 0 mm 2 mps 653 mmHg 32%
    14:00 +25°C° 0 mm 2 mps 653 mmHg 28%
    15:00 +24°C° 0 mm 2 mps 653 mmHg 29%
    16:00 +24°C° 0 mm 2 mps 653 mmHg 29%
    17:00 +23°C° 0 mm 2 mps 653 mmHg 29%
    18:00 +21°C° 0 mm 2 mps 653 mmHg 33%
    19:00 +19°C° 0 mm 2 mps 652 mmHg 37%
    20:00 +17°C° 0 mm 2 mps 652 mmHg 41%
    21:00 +16°C° 0 mm 2 mps 652 mmHg 41%
    22:00 +16°C° 0 mm 2 mps 652 mmHg 41%
    23:00 +15°C° 0 mm 2 mps 652 mmHg 41%
    Show more